GW2921 Weather Reports


time (UTC)temp
F
wind
direction
speed
knots
gust
knots
rain 1hr
in
rain 24hr
in
rain mn
in
humidity
%
barometer
mb
20260503050055 34 0 0.0 0.0 0.00 0.00 0.00 83 1016.4
20260503044549 35 0 0.0 0.0 0.00 0.00 0.00 82 1016.2
20260503043056 35 0 0.0 0.0 0.00 0.00 0.00 82 1016.3
20260503041551 35 0 0.0 0.0 0.00 0.00 0.00 81 1016.2
20260503040056 36 0 0.0 0.0 0.00 0.00 0.00 80 1016.2
20260503034550 36 0 0.0 0.0 0.00 0.00 0.00 79 1016.1
20260503033046 36 0 0.0 0.0 0.00 0.00 0.00 78 1016.2
20260503031549 37 0 0.0 0.0 0.00 0.00 0.00 77 1016.2
20260503030050 37 0 0.0 0.0 0.00 0.00 0.00 77 1016.2
20260503024550 37 0 0.0 0.0 0.00 0.00 0.00 76 1016.1
20260503023053 38 0 0.0 0.0 0.00 0.00 0.00 74 1016.1
20260503021553 38 0 0.0 0.0 0.00 0.00 0.00 72 1016.1
20260503020048 39 0 0.0 0.9 0.00 0.00 0.00 71 1016.0
20260503014559 39 0 0.0 0.9 0.00 0.00 0.00 69 1015.9
20260503013053 40 0 0.0 0.9 0.00 0.00 0.00 66 1015.6
20260503011552 41 0 0.0 0.9 0.00 0.00 0.00 64 1015.6
20260503010051 42 0 0.0 0.9 0.00 0.00 0.00 62 1015.5
20260503004558 43 0 0.0 2.6 0.00 0.00 0.00 59 1015.4
20260503003100 44 194 0.0 0.9 0.00 0.00 0.00 57 1015.4
20260503001555 45 0 0.0 2.6 0.00 0.00 0.00 55 1015.2
20260503000056 45 0 0.0 1.7 0.00 0.00 0.00 53 1015.1
20260502234557 46 165 0.9 7.0 0.00 0.00 0.00 53 1014.8
20260502233056 46 142 0.9 6.1 0.00 0.00 0.00 52 1014.7
20260502231556 46 0 0.9 5.2 0.00 0.00 0.00 51 1014.6
20260502230055 47 186 0.0 2.6 0.00 0.00 0.00 52 1014.7
20260502224553 47 0 0.0 5.2 0.00 0.00 0.00 52 1014.4
20260502223054 48 137 0.9 3.5 0.00 0.00 0.00 50 1014.4
20260502221558 48 0 0.0 3.5 0.00 0.00 0.00 50 1014.2
20260502220051 49 86 0.9 5.2 0.00 0.00 0.00 49 1014.1
20260502214556 49 140 0.9 6.1 0.00 0.00 0.00 50 1014.0
20260502213050 47 0 0.0 5.2 0.00 0.00 0.00 51 1014.1
20260502211549 48 182 0.9 5.2 0.00 0.00 0.00 50 1013.9
20260502210106 48 113 0.0 6.1 0.00 0.00 0.00 51 1013.9
20260502204555 50 202 0.9 7.8 0.00 0.00 0.00 47 1013.9
20260502203051 48 0 0.9 7.0 0.00 0.00 0.00 50 1014.0
20260502201550 49 143 2.6 7.0 0.00 0.00 0.00 50 1014.1
20260502200054 50 102 1.7 6.1 0.00 0.00 0.00 48 1014.0
20260502194600 49 154 1.7 7.0 0.00 0.00 0.00 47 1014.2
20260502193047 51 70 1.7 10.4 0.00 0.00 0.00 46 1014.0
20260502191558 51 134 0.9 5.2 0.00 0.00 0.00 44 1014.1
20260502190051 51 161 1.7 12.2 0.00 0.00 0.00 44 1014.1
20260502184551 50 123 1.7 7.0 0.00 0.00 0.00 45 1014.2
20260502183054 53 103 2.6 7.0 0.00 0.00 0.00 42 1014.3
20260502181552 51 67 2.6 9.6 0.00 0.00 0.00 41 1014.3
20260502163054 51 162 0.9 6.1 0.00 0.00 0.00 46 1014.7
20260502161556 50 142 0.9 6.1 0.00 0.00 0.00 47 1015.0
20260502151602 49 194 1.7 5.2 0.00 0.00 0.00 48 1015.3
20260502130105 41 0 0.0 6.1 0.00 0.00 0.00 67 1015.7
20260502123059 40 0 0.0 1.7 0.00 0.00 0.00 69 1015.5
20260502121556 40 0 0.0 2.6 0.00 0.00 0.00 71 1015.6
20260502114608 39 0 0.0 1.7 0.00 0.00 0.00 75 1015.7
20260502113053 37 0 0.0 0.0 0.00 0.00 0.00 79 1015.6
20260502111558 37 0 0.0 0.9 0.00 0.00 0.00 80 1015.4
20260502110054 37 0 0.0 0.0 0.00 0.00 0.00 79 1015.4
20260502104555 37 0 0.0 0.0 0.00 0.00 0.00 78 1015.3
20260502103106 38 0 0.0 0.9 0.00 0.00 0.00 76 1015.2
20260502101559 38 0 0.0 0.9 0.00 0.00 0.00 74 1015.2
20260502100118 39 0 0.0 0.0 0.00 0.00 0.00 73 1015.3
20260502090110 41 0 0.0 0.9 0.00 0.00 0.00 65 1015.5
20260502070053 44 0 0.0 6.1 0.00 0.00 0.00 66 1015.0
20260502064603 44 0 0.0 2.6 0.00 0.00 0.00 70 1015.3
20260502063047 45 86 0.9 6.1 0.00 0.00 0.00 73 1015.3
20260502061609 45 0 0.0 2.6 0.00 0.00 0.00 73 1015.4
20260502060051 46 98 0.0 2.6 0.00 0.00 0.00 74 1015.5
20260502054553 46 0 0.9 4.3 0.00 0.00 0.00 73 1015.5
20260502053057 46 0 0.0 6.1 0.00 0.00 0.00 73 1015.4
20260502051546 46 166 0.0 1.7 0.00 0.00 0.00 72 1015.3